Regional Weather Roundup
Issued by NWS

Home | Current Version | Previous Version | Text Only | Print | Product List | Glossary Off
Versions: 1 2 3 4 5 6 7 8 9 10 11 12 13 14 15 16 17 18 19 20 21 22 23 24 25 26 27 28 29 30 31 32 33 34 35 36 37 38 39 40 41 42 43 44 45 46 47 48 49 50

000
ASUS43 KMPX 231801
RWRMN
WEATHER ROUNDUP FOR MINNESOTA
NATIONAL WEATHER SERVICE TWIN CITIES/CHANHASSEN MN
100 PM CDT WED AUG 23 2017


NOTE: "FAIR" INDICATES FEW OR NO CLOUDS BELOW 12,000 FEET WITH NO
SIGNIFICANT WEATHER AND/OR OBSTRUCTIONS TO VISIBILITY. N/A MEANS
CURRENT SKY AND/OR WEATHER CONDITIONS ARE NOT AVAILABLE.

MNZ060>063-068>070-231900-
   Twin Cities Metro

CITY           SKY/WX    TMP DP  RH WIND       PRES   REMARKS
TWIN CITIES    MOSUNNY   73  52  47 NW10      30.09F
6HR MIN TEMP:  57; 6HR MAX TEMP:  73;

ST PAUL        SUNNY     71  53  52 NW9       30.09F
CRYSTAL        SUNNY     73  51  46 NW9G17    30.08F
BLAINE         MOSUNNY   73  54  49 NW9       30.09F
LAKEVILLE      SUNNY     72  52  49 NW10G16   30.10F
EDEN PRAIRIE   SUNNY     73  54  51 N10       30.09F
6HR MIN TEMP:  53; 6HR MAX TEMP:  73;

SOUTH ST PAUL  MOSUNNY   72  50  46 W9        30.09F
LAKE ELMO      PTSUNNY   70  54  56 N8        30.10F
$$
MNZ001>005-007-008-013>017-022>024-027-028-231900-
   Northwest Minnesota

CITY           SKY/WX    TMP DP  RH WIND       PRES   REMARKS
BEMIDJI        CLOUDY    64  50  59 NE5       30.11F
HALLOCK        CLOUDY    64  54  68 E6        30.09S
ROSEAU           N/A     61  54  77 CALM      30.12F
WARROAD        CLOUDY    59  54  82 CALM      30.13S
CROOKSTON      SUNNY     72  52  49 CALM      30.08F
FOSSTON        SUNNY     70  55  60 N9        30.10F
DETROIT LAKES  SUNNY     68  50  52 CALM      30.11F
MOORHEAD       SUNNY     73  48  40 E5        30.08F
PARK RAPIDS    SUNNY     70  49  47 N7        30.09F
MAHNOMEN       FAIR      68  49  51 NW5       30.10F
$$
MNZ006-009>011-018-025>026-231900-
   North Central Minnesota

CITY           SKY/WX    TMP DP  RH WIND       PRES   REMARKS
BAUDETTE       CLOUDY    61  52  72 N7        30.11F
FLAG ISLAND    MOSUNNY   61  46  59 CALM      30.10F
INTL FALLS     MOSUNNY   63  47  55 N6        30.10F
6HR MIN TEMP:  48; 6HR MAX TEMP:  64;

WASKISH        CLOUDY    64  54  68 W5        30.11F
BIG FORK       CLOUDY    64  48  55 CALM      30.10F
LONGVILLE      MOSUNNY   66  48  52 N7        30.10F
GRAND RAPIDS   PTSUNNY   64  48  56 N8        30.11F
CRANE LAKE     PTSUNNY   61  46  59 N6        30.12F
ORR            PTSUNNY   63  43  48 NW5       30.08F
COOK           MOSUNNY   61  45  55 N3        30.10F
WALKER         FAIR      65  51  60 CALM      30.11F
$$
MNZ012-019>021-037-231900-
   Northeast Minnesota

CITY           SKY/WX    TMP DP  RH WIND       PRES   REMARKS
DULUTH         PTSUNNY   63  47  55 N8        30.08F
6HR MIN TEMP:  50; 6HR MAX TEMP:  63;

ELY            MOSUNNY   59  41  51 NW5       30.09F
HIBBING        PTSUNNY   61  45  55 NW10      30.09F
EVELETH        MOSUNNY   63  36  36 CALM      30.10F
DULUTH HARBOR  CLOUDY    66  50  55 N9        30.09F
SILVER BAY     PTSUNNY   63  46  55 N6        30.07F
GRAND MARAIS     N/A     66  39  37 VRB6G20   30.05F
$$
MNZ029>031-032-039>041-046>048-054>057-064-231900-
   West Central Minnesota

CITY           SKY/WX    TMP DP  RH WIND       PRES   REMARKS
FERGUS FALLS   SUNNY     72  52  49 W3        30.08F
WHEATON        SUNNY     73  48  40 S6        30.10F
MORRIS         SUNNY     73  48  40 CALM      30.09F
ALEXANDRIA     SUNNY     71  50  47 CALM      30.12F
ELBOW LAKE     FAIR      71  52  50 CALM      30.10F HAZE
WADENA         SUNNY     70  50  49 CALM      30.10S
GLENWOOD       SUNNY     72  46  40 CALM      30.11F
APPLETON       SUNNY     73  46  38 CALM      30.10F
BENSON         SUNNY     75  43  31 CALM      30.11F
ORTONVILLE     SUNNY     73  46  38 MISG      30.09F
MADISON        SUNNY     77  52  41 CALM      30.10F
WILLMAR        FAIR      73  52  46 CALM      30.13F
$$
MNZ033>034-036-042>043-049>051-058-059-231900-
   Central Minnesota

CITY           SKY/WX    TMP DP  RH WIND       PRES   REMARKS
ST CLOUD       SUNNY     71  53  52 VRB6      30.10F
6HR MIN TEMP:  48; 6HR MAX TEMP:  71;

SAUK CENTRE    FAIR      70  49  48 CALM      30.11F
PAYNESVILLE    SUNNY     73  51  45 N7        30.11F
AITKIN         MOSUNNY   66  48  52 N7        30.09F
PINE RIVER     SUNNY     64  50  59 N3        30.13F
BRAINERD       SUNNY     67  51  56 E5        30.10F
STAPLES        SUNNY     70  48  46 N5        30.10F
LONG PRAIRIE   FAIR      70  50  49 SW6       30.11F
LITTLE FALLS   SUNNY     70  46  43 N5        30.10F
LITCHFIELD     SUNNY     75  54  46 W5        30.11F
BUFFALO        SUNNY     71  50  48 NW5       30.11F
MAPLE LAKE     SUNNY     72  55  54 NW7       30.11F
HUTCHINSON     CLOUDY    73  54  51 NW3       30.12F
$$
MNZ037-044-045-052-053-231900-
   East Central Minnesota

CITY           SKY/WX    TMP DP  RH WIND       PRES   REMARKS
PRINCETON      MOSUNNY   73  54  49 W7        30.10F
MORA           PTSUNNY   66  50  55 N3        30.11F
CAMBRIDGE      MOSUNNY   73  54  49 NW10      30.10F
RUSH CITY      MOSUNNY   68  51  54 NW6       30.09F
MOOSE LAKE     PTSUNNY   64  46  52 N3        30.08F
HINCKLEY       MOCLDY    66  50  55 N8        30.09F
CLOQUET        PTSUNNY   63  45  51 NW10      30.10S
MCGREGOR       MOSUNNY   64  46  52 N9        30.10F
$$
MNZ071>073-080-081-089-090-097-098-231900-
   Southwest Minnesota

CITY           SKY/WX    TMP DP  RH WIND       PRES   REMARKS
MONTEVIDEO     SUNNY     77  59  53 CALM      30.11F
GRANITE FALLS  SUNNY     74  53  48 S3        30.13F
CANBY          MOSUNNY   76  49  38 CALM      30.11F
MARSHALL       MOSUNNY   74  48  39 S3        30.11F
REDWOOD FALLS  SUNNY     74  48  39 VRB3      30.11F
OLIVIA         SUNNY     73  50  43 CALM      30.11F
PIPESTONE      MOSUNNY   73  48  40 S5        30.12F
WINDOM         SUNNY     75  48  38 W3        30.13F
WORTHINGTON    CLOUDY    72  51  47 W6        30.14F
JACKSON        MOSUNNY   72  48  43 CALM      30.14F
TRACY          PTSUNNY   73  53  49 NW3       30.12F
SLAYTON        SUNNY     72  47  40 SW6       30.15S
$$
MNZ065>067-074>077-082>085-091>093-231900-
   South Central Minnesota

CITY           SKY/WX    TMP DP  RH WIND       PRES   REMARKS
MANKATO        SUNNY     71  49  45 N10       30.12F
NEW ULM        SUNNY     72  54  53 NW6       30.12F
ST JAMES       SUNNY     73  52  46 NW7       30.13F
FAIRMONT       SUNNY     73  48  41 NW8       30.13F
GLENCOE        SUNNY     73  55  52 NW9       30.11F
FARIBAULT      SUNNY     72  54  53 NW9       30.11F
OWATONNA       SUNNY     72  54  53 W8        30.11F
WASECA         SUNNY     72  52  49 NW6       30.13F
ALBERT LEA     SUNNY     73  54  49 W7        30.12F
$$
MNZ078>079-086>088-094>096-231900-
   Southeast Minnesota

CITY           SKY/WX    TMP DP  RH WIND       PRES   REMARKS
ROCHESTER      SUNNY     70  54  56 NW12G22   30.11F
6HR MIN TEMP:  50; 6HR MAX TEMP:  71;

RED WING       MOSUNNY   72  52  49 NW7       30.08F
STANTON        SUNNY     72  53  51 NW12      30.09F
DODGE CENTER   SUNNY     70  50  49 NW13G18   30.11F
WINONA         SUNNY     73  55  53 NW10G16   30.09F
AUSTIN         SUNNY     72  50  46 W10G16    30.12S
PRESTON        SUNNY     70  51  50 NW10      30.11F
$$
ABBREVIATIONS USED IN REMARKS
   TC - TEMPERATURES IN CELSIUS
  WCI - WIND CHILL INDEX
   HX - HEAT INDEX
  VSB - VISIBILITY
$$




USA.gov is the U.S. government's official web portal to all federal, state and local government web resources and services.